Vorticity
4 3 3 2 5 10 10 6 4 2 1 1 1 2 3 4 5 5 4 3 3 3 3 3 3 3 2 2 3 4 5 5 5 5 4 4 4 3 3 4 3 3 2 2 3 3 3 2 3 3 4 3 3 3 3 3 3 3 3 3 3 3 3 3 3 3 3 3 3 3 4 4 4 4 4 4 4 4 5 5 4 3 4 5 6 6 4 5
5 3 -0 1 4 7 8 8 7 4 3 1 1 1 1 2 3 4 4 4 4 4 3 3 3 3 3 3 3 3 3 4 4 4 5 5 5 5 5 5 4 4 4 3 3 3 3 3 3 3 3 3 3 3 3 2 2 2 3 2 3 4 4 4 4 3 3 3 3 3 3 3 4 3 3 3 3 5 5 4 3 3 5 6 6 4 4 5
4 3 0 1 4 4 6 9 9 6 4 3 2 1 0 1 1 2 3 3 4 4 4 4 4 3 3 3 3 3 3 3 3 4 4 4 5 6 5 5 6 5 5 4 4 4 3 3 3 3 3 3 2 2 2 2 2 3 3 2 3 5 4 4 5 4 4 3 3 4 3 4 3 3 4 4 5 7 5 3 5 6 6 5 4 4 4 5
3 3 1 1 3 3 4 8 9 9 7 5 4 3 2 1 0 0 1 2 2 2 3 4 4 4 4 4 3 3 2 2 3 4 4 4 5 5 5 5 6 6 5 5 5 5 4 4 3 3 3 3 3 3 3 3 3 3 3 3 4 4 4 5 5 4 4 4 4 4 4 4 4 5 5 6 8 7 4 4 6 6 5 4 4 4 5 4
2 2 2 3 5 4 4 6 7 8 8 8 7 6 6 4 3 2 1 1 1 1 2 2 3 4 4 5 5 4 2 2 3 3 3 3 4 4 4 4 5 5 6 6 6 6 5 5 5 5 5 4 5 4 4 5 4 3 4 4 4 4 5 5 5 5 5 5 5 4 4 5 5 6 5 7 8 5 3 6 6 5 4 4 4 4 4 4
3 4 4 4 5 4 4 5 5 5 7 8 9 9 9 8 7 6 4 3 2 1 1 0 1 2 3 4 5 5 4 4 5 4 3 2 2 2 3 4 5 5 6 6 6 6 6 6 6 6 6 6 6 5 5 5 5 3 4 5 4 5 5 5 5 5 5 5 5 5 5 5 5 6 5 7 6 3 4 5 4 4 4 4 4 3 3 3
4 4 4 4 4 5 5 5 5 5 6 7 7 8 8 9 9 9 8 7 6 5 3 2 1 0 0 1 2 3 3 5 6 5 5 4 3 2 2 3 3 4 4 4 4 5 5 6 6 5 6 6 6 6 5 5 6 5 5 6 5 6 6 6 6 6 6 6 5 6 6 7 7 6 7 7 5 4 4 4 3 4 4 3 3 3 3 3
3 4 3 4 4 4 4 4 4 4 5 4 4 5 5 6 7 8 9 8 8 8 7 6 5 3 2 1 1 1 1 3 4 5 7 7 6 4 3 3 2 3 3 4 4 4 4 4 4 4 5 5 5 5 6 5 6 6 6 7 6 7 7 6 7 7 7 7 7 7 7 7 7 7 8 6 4 3 3 3 4 3 2 3 3 3 3 3
4 4 4 4 5 5 5 4 4 4 4 5 5 5 5 5 5 6 7 7 8 8 8 9 8 7 6 5 3 1 1 1 1 2 4 6 8 7 6 5 4 3 3 4 4 4 5 5 4 4 3 4 5 5 6 5 6 6 5 6 6 7 7 7 8 8 8 7 7 7 7 7 6 7 6 3 1 3 3 4 4 2 3 3 3 3 3 3
6 6 6 6 5 5 5 4 5 5 5 6 6 6 6 6 6 6 6 6 7 7 8 9 9 10 9 9 7 5 5 4 1 1 1 3 5 7 8 8 8 6 5 5 5 4 5 5 5 5 4 5 5 5 6 5 5 5 5 5 6 6 7 7 7 7 7 6 6 7 6 6 6 6 4 3 3 4 4 4 4 3 4 3 3 4 4 4
7 7 6 6 5 5 5 5 6 6 6 6 6 8 8 8 8 7 7 7 8 8 9 9 9 10 10 11 11 9 9 8 6 4 2 1 2 4 6 8 9 9 8 7 7 6 5 5 5 5 5 4 5 5 5 4 5 5 5 6 6 7 7 7 7 7 6 6 6 6 5 5 5 4 4 4 4 4 4 4 3 4 4 4 4 4 4 4
7 6 5 5 5 6 6 6 6 6 7 8 8 10 10 10 9 8 7 7 8 9 8 8 7 7 8 10 11 11 12 11 10 9 6 3 1 1 3 6 8 9 10 9 9 9 8 8 7 6 6 5 5 6 5 5 5 5 6 6 6 7 7 6 6 5 5 6 6 5 4 4 4 4 4 4 4 4 4 4 4 5 5 5 5 5 5 4
5 5 5 6 6 6 6 6 7 8 8 9 11 11 11 10 9 8 9 9 9 8 8 7 6 7 8 9 12 14 14 13 12 13 12 9 6 3 2 4 6 7 9 9 9 9 9 9 8 8 8 8 7 7 7 6 6 5 6 6 5 5 5 6 6 5 6 5 5 5 4 4 5 5 5 5 5 5 5 5 5 5 6 5 5 5 5 5
5 6 6 6 6 5 6 7 8 9 11 12 13 12 10 8 7 7 8 8 8 8 9 9 9 9 10 11 14 18 17 14 12 12 13 12 10 7 2 2 4 5 7 9 9 8 8 8 8 9 9 9 8 8 8 6 6 6 7 7 6 5 5 6 6 6 6 5 5 5 6 6 6 6 6 5 5 5 5 5 5 5 5 5 5 5 5 6
7 7 6 6 5 6 8 9 11 12 13 13 11 10 9 7 7 6 7 6 6 7 8 9 9 9 9 10 12 17 18 14 12 11 11 11 11 10 6 4 4 4 5 7 8 8 8 8 8 8 7 8 7 6 6 5 7 7 6 6 7 7 7 7 7 7 6 6 6 5 6 6 5 5 5 4 5 5 6 6 6 6 6 6 6 6 6 6
6 6 6 6 7 9 11 12 14 14 13 10 9 9 8 7 6 6 6 5 5 6 7 7 8 8 8 8 9 13 14 12 11 10 9 9 9 11 10 7 5 6 6 6 7 8 8 7 7 7 7 7 6 6 6 7 9 8 7 7 7 7 6 4 4 3 3 2 3 3 4 4 5 5 5 5 6 6 7 6 7 7 7 7 7 8 8 9
5 6 7 9 10 12 14 17 17 14 11 8 8 8 7 7 7 7 7 7 8 8 8 7 7 8 8 8 9 10 10 10 9 8 8 8 8 9 10 9 7 7 7 7 6 6 6 7 7 8 8 7 7 8 9 8 6 5 5 5 4 3 3 4 4 4 5 6 6 7 6 6 6 7 6 6 6 7 8 7 7 7 7 8 9 9 10 10
6 8 11 12 12 13 14 15 15 13 10 9 8 7 6 7 6 7 8 8 9 9 10 10 9 10 10 10 10 10 9 9 8 8 8 8 8 8 8 8 8 8 8 8 8 8 7 8 8 8 7 7 7 6 5 4 2 1 2 3 4 6 7 8 8 7 7 7 7 7 7 6 6 7 7 6 7 8 9 10 10 11 11 11 11 12 12 13
10 12 13 10 7 7 6 6 7 7 7 7 7 6 6 6 6 7 8 8 9 9 9 10 10 10 10 11 11 11 10 10 10 10 9 8 8 7 7 7 6 6 7 7 7 6 6 5 5 4 2 2 1 1 2 4 5 5 6 8 9 9 8 7 7 7 7 7 7 7 7 7 6 6 7 9 10 10 10 11 13 14 14 13 13 12 12 12
14 11 8 6 4 5 5 5 6 6 6 7 6 7 7 7 7 7 8 8 8 8 8 9 9 9 9 11 12 12 11 12 12 11 10 9 8 8 8 8 8 8 8 7 7 7 8 7 6 6 6 6 7 8 9 10 11 11 11 10 9 9 8 7 8 8 8 8 7 7 8 7 7 8 9 11 12 11 10 9 9 9 10 10 11 10 10 11
8 5 5 6 7 7 6 5 5 4 4 4 3 4 3 3 5 5 6 8 9 10 11 10 10 9 10 10 10 10 10 11 12 12 13 14 15 16 17 17 17 18 18 17 16 16 16 16 15 14 15 14 13 12 11 10 10 9 9 8 8 8 7 7 7 7 7 8 9 10 11 10 10 10 10 8 7 7 7 8 9 8 9 10 11 12 13 14
5 7 7 7 5 4 3 2 2 2 2 2 2 2 2 4 6 6 7 10 11 11 11 10 10 10 10 9 8 7 7 9 11 12 13 13 16 17 17 17 17 16 16 15 14 14 13 13 12 11 10 9 9 8 7 8 7 7 7 7 7 7 8 8 9 10 11 12 11 10 10 9 8 8 8 7 7 9 11 12 12 12 12 12 13 13 13 13
7 6 5 3 2 1 2 2 2 2 3 3 5 7 9 11 12 13 15 17 17 17 18 19 20 20 20 19 18 16 14 13 12 12 13 13 13 12 11 12 11 10 9 9 8 8 7 7 7 6 6 6 7 7 7 7 7 8 8 9 10 11 12 12 10 10 9 8 8 7 8 9 11 12 12 14 15 15 14 13 13 12 13 12 11 11 10 10
4 3 2 2 2 3 3 3 3 5 8 11 13 16 17 18 20 22 23 22 21 21 21 22 21 22 23 22 23 22 21 18 15 12 11 11 10 9 7 7 7 6 5 6 6 6 6 6 7 7 7 8 7 8 8 9 10 11 12 12 12 10 9 10 9 7 6 9 12 13 14 14 14 14 13 14 14 12 11 11 11 10 10 10 9 9 10 10
2 2 2 4 4 4 4 6 11 14 17 19 20 22 23 23 24 21 17 14 13 14 13 11 11 13 13 13 13 14 17 18 17 15 13 12 10 8 7 7 7 7 6 7 7 7 8 8 8 8 9 9 9 10 11 11 10 10 9 8 7 7 8 10 12 13 13 14 13 13 14 14 9 7 8 10 10 9 9 8 8 8 8 8 9 9 10 10
3 3 4 5 4 7 11 16 19 19 21 23 23 23 21 18 14 9 9 10 9 9 7 5 8 10 8 9 9 8 11 11 10 12 12 11 11 10 10 9 9 9 8 8 8 9 10 9 10 10 10 11 10 10 8 7 7 6 6 8 10 12 12 13 13 13 13 11 9 8 9 10 7 6 7 8 7 8 9 9 9 9 8 8 8 10 11 11
4 5 4 6 10 17 19 19 20 19 20 20 18 14 10 9 7 4 10 11 6 6 5 2 4 6 6 7 8 7 8 7 6 9 8 8 9 8 8 8 8 9 8 9 10 11 11 10 10 9 8 7 6 7 7 8 9 10 12 13 12 12 11 10 7 6 7 5 6 7 6 7 8 8 8 8 9 10 10 10 10 11 11 12 12 12 13 12
5 5 8 16 21 20 15 13 14 13 11 9 8 6 5 8 7 6 10 8 2 4 4 0 -1 0 2 4 6 7 7 8 8 8 8 8 9 8 9 9 9 10 10 10 8 7 7 7 7 7 8 9 10 11 12 12 13 12 11 9 8 7 5 4 3 4 6 6 7 7 7 8 8 8 11 11 11 11 12 12 13 14 14 14 13 12 12 11
7 13 21 23 17 11 8 9 10 7 3 3 5 6 7 10 9 9 11 5 0 4 4 0 -2 -1 0 1 5 7 9 10 10 9 10 10 9 9 9 8 8 8 7 7 7 8 10 10 12 13 13 13 13 12 12 11 9 7 6 5 5 5 3 3 5 6 7 9 10 9 8 9 7 8 11 13 13 14 14 15 14 14 13 12 12 12 12 13
18 23 21 13 7 7 7 7 8 6 4 6 9 11 12 13 12 13 12 4 2 5 5 2 1 0 1 3 8 10 10 9 8 8 8 7 7 7 7 8 9 9 11 14 15 15 14 13 13 12 9 9 9 8 8 6 5 5 5 4 3 4 4 5 7 7 8 9 8 9 10 10 11 14 14 14 15 15 14 14 13 12 12 12 13 13 13 14
22 16 10 8 10 12 11 11 11 11 11 13 14 13 13 14 15 15 13 8 6 6 3 3 3 3 4 7 9 8 7 7 7 9 10 11 13 14 14 16 16 15 17 18 14 11 9 8 7 6 6 6 6 6 6 5 6 6 5 5 4 4 5 5 5 4 6 8 9 12 12 11 16 19 16 14 13 13 12 11 10 10 11 11 12 12 12 11
11 8 10 14 17 17 16 15 14 13 12 11 10 8 9 11 12 10 9 9 8 5 5 6 5 5 6 7 8 11 14 17 18 19 19 19 19 17 16 15 13 12 11 9 6 6 6 6 6 6 5 5 4 4 4 4 4 3 4 5 6 6 4 4 5 7 9 10 12 14 13 14 17 16 14 14 12 10 10 10 10 11 11 10 10 9 9 9
7 11 14 14 14 12 12 10 8 7 6 5 4 4 6 6 7 7 7 8 7 6 7 7 7 9 13 16 19 21 21 18 17 15 13 12 10 9 8 6 6 5 4 3 3 5 5 4 6 5 3 4 5 4 4 3 3 5 6 6 10 15 15 13 13 13 12 9 9 13 14 15 14 11 11 13 12 12 13 13 13 12 11 10 10 11 13 13
12 12 10 8 6 5 5 4 4 4 4 6 5 5 7 7 8 8 8 9 7 8 10 12 17 21 23 22 19 15 11 8 8 6 5 5 4 4 4 3 3 3 2 3 3 4 6 5 3 2 4 6 7 8 9 9 9 10 9 11 16 18 19 20 20 18 16 12 10 11 13 13 12 11 13 13 13 13 13 12 10 10 11 11 12 14 14 12
11 7 5 4 3 3 5 5 5 6 7 8 6 6 9 8 9 10 11 13 15 17 19 19 19 17 14 11 7 6 5 4 4 3 3 2 2 2 2 2 3 2 3 3 3 5 8 8 7 8 9 9 8 9 8 8 9 9 11 15 16 12 13 17 17 16 17 16 15 14 13 13 12 12 12 11 10 9 8 8 8 9 11 11 13 14 11 9
5 4 4 3 3 4 6 7 7 7 7 7 7 9 12 14 17 18 19 20 19 18 16 13 9 5 3 4 3 3 3 2 2 2 3 3 3 4 4 3 3 4 5 6 6 6 7 8 9 9 9 8 8 8 8 10 11 12 15 16 14 14 16 15 13 14 14 17 20 17 13 12 10 10 10 9 7 7 7 7 9 11 12 13 15 15 12 12
3 4 4 4 4 5 8 7 6 7 9 11 15 18 20 20 20 18 16 14 11 9 7 6 5 3 2 2 2 1 2 2 2 2 3 4 4 5 5 5 6 7 8 8 9 10 8 7 7 7 8 9 9 10 14 16 14 15 17 16 16 16 16 15 16 16 13 13 15 12 9 11 11 12 12 11 11 12 10 11 12 12 12 15 16 13 10 11
4 4 4 6 7 7 7 7 10 14 16 19 20 20 18 15 12 9 8 7 5 4 4 3 3 2 1 2 1 1 3 3 3 3 5 6 6 7 7 9 9 9 10 10 11 11 9 8 6 6 9 10 12 16 18 15 15 20 22 20 19 17 14 13 13 13 12 11 12 10 8 9 12 13 13 15 17 16 15 14 14 14 16 19 15 10 10 11
5 5 6 7 8 8 10 13 17 19 19 18 16 14 11 9 7 4 3 3 2 2 2 1 2 2 2 2 2 2 3 4 5 6 7 7 8 9 10 11 11 11 12 11 10 9 9 9 8 10 13 13 13 14 12 11 14 19 17 15 14 12 12 10 8 10 9 8 12 13 9 9 12 15 17 20 21 20 21 21 20 20 21 17 10 8 11 11
6 7 7 8 10 14 17 19 19 18 17 13 9 7 6 4 3 2 2 2 1 2 2 2 2 3 3 3 4 4 5 7 7 7 8 9 10 12 12 12 11 11 10 8 8 8 8 9 10 12 13 13 12 13 14 16 18 15 11 10 7 4 5 5 5 7 5 7 12 10 8 11 12 14 17 22 24 24 22 19 15 14 11 8 9 14 16 14
7 8 10 14 17 19 19 19 16 13 11 7 4 4 2 2 2 2 2 2 2 2 2 2 3 4 5 6 7 7 8 9 9 10 11 12 13 13 11 9 8 7 6 6 8 9 9 12 12 12 12 12 14 18 19 18 16 12 10 10 7 6 7 6 7 7 4 6 6 1 4 9 10 12 17 21 26 29 26 20 16 12 9 8 8 7 6 5
9 13 17 20 20 18 17 14 10 6 4 3 2 2 2 2 2 2 2 2 3 3 3 4 5 7 8 8 9 9 10 11 13 14 14 12 10 9 8 7 6 7 7 8 10 10 12 12 11 13 18 18 17 19 17 12 8 7 8 8 8 9 9 8 10 10 6 2 0 -0 3 6 7 11 15 17 23 28 30 28 25 19 15 13 9 5 3 2
15 19 20 19 16 14 10 7 4 2 2 2 2 2 2 2 2 3 3 3 4 5 5 6 7 8 8 8 10 11 13 15 14 12 10 8 7 7 7 7 8 9 9 10 12 12 13 11 8 14 18 14 13 13 10 6 5 5 6 7 7 6 6 7 8 7 5 3 3 4 2 2 5 8 11 16 22 25 26 27 28 28 25 23 21 19 18 15
20 19 18 15 12 7 4 2 2 2 2 3 3 3 3 2 3 4 4 5 6 6 6 7 8 8 10 12 14 15 14 13 10 8 7 7 7 7 8 8 9 9 9 11 13 13 16 16 16 19 18 11 8 7 3 2 3 7 10 9 8 7 7 8 7 5 5 4 5 5 2 2 6 8 10 15 19 21 22 21 23 25 24 22 22 24 25 26
19 17 13 9 5 3 1 1 2 2 2 3 3 2 3 3 4 6 6 7 7 7 8 9 11 14 16 16 15 13 10 8 7 7 7 8 8 8 9 9 8 8 9 12 14 15 20 21 18 19 18 13 11 10 8 8 10 11 11 8 6 7 7 8 9 9 8 6 5 5 5 5 5 6 10 13 16 20 20 17 15 14 13 15 18 21 24 26
15 10 6 3 1 2 2 1 3 3 2 3 4 3 4 5 6 6 7 7 8 9 12 14 16 16 15 13 11 9 7 7 7 8 8 9 9 9 8 6 6 9 12 14 16 19 23 20 13 11 10 7 8 8 9 11 11 10 8 7 8 10 10 11 11 10 9 8 6 5 7 7 5 6 10 12 15 18 18 17 15 12 11 11 11 12 13 14
8 4 2 2 1 2 2 2 3 3 1 3 5 5 6 7 6 6 8 9 12 14 15 15 14 11 9 9 8 7 7 7 8 9 9 10 9 7 5 6 10 14 16 19 20 21 21 14 6 5 4 4 6 7 7 8 8 9 9 8 9 9 10 11 11 9 9 9 9 8 8 8 7 7 10 11 13 16 18 18 16 15 13 11 10 10 9 10
3 2 1 2 2 3 3 2 2 4 3 3 6 6 6 6 6 9 12 14 15 15 14 12 9 8 9 8 6 7 9 9 9 9 9 8 6 5 7 11 16 18 19 22 21 17 13 7 2 2 3 5 6 5 7 8 10 11 9 7 8 9 9 9 9 9 9 9 11 11 10 10 9 9 10 11 11 14 17 18 18 18 17 16 15 13 13 13
1 2 2 3 3 4 3 1 2 4 4 5 7 6 6 8 11 15 16 15 14 12 10 10 9 9 8 7 8 10 10 9 10 8 7 6 4 6 11 15 17 19 21 21 16 10 8 5 2 1 3 5 4 5 9 10 11 11 7 6 7 7 7 7 8 9 8 8 11 11 10 10 8 8 9 10 11 12 14 16 18 19 17 16 16 15 15 15
1 2 4 4 2 4 4 2 3 5 5 6 8 7 10 14 15 14 13 12 11 10 10 10 9 7 7 8 10 10 9 10 9 6 6 5 5 10 14 17 20 21 20 16 11 7 6 4 2 1 3 5 5 6 8 9 10 9 6 6 6 4 4 6 9 10 9 9 11 10 9 9 8 7 9 10 10 12 13 14 18 20 17 16 16 15 14 14
2 3 4 3 1 3 5 3 4 7 7 7 9 10 13 14 12 11 11 10 10 9 9 9 8 7 9 10 10 9 9 8 6 6 6 6 9 15 18 20 23 21 16 11 8 5 3 3 3 2 3 5 5 6 6 8 10 8 6 6 6 3 2 6 10 10 8 9 11 11 9 9 7 7 8 10 11 12 13 13 15 18 17 17 17 16 15 15
4 3 3 4 2 2 6 6 6 8 7 8 11 12 12 11 10 11 11 9 9 8 8 8 8 9 10 10 9 8 8 7 6 6 6 8 15 20 22 24 22 17 12 9 7 5 4 4 5 3 4 5 5 6 6 7 8 7 7 8 6 4 3 5 9 10 7 9 10 9 8 8 8 8 9 11 12 12 13 12 13 15 17 17 18 17 16 15
Height
5808 5808 5808 5809 5809 5809 5809 5810 5810 5810 5810 5810 5810 5810 5810 5810 5810 5810 5810 5810 5810 5810 5810 5810 5810 5810 5810 5810 5810 5811 5811 5811 5811 5810 5810 5811 5811 5811 5811 5811 5811 5811 5811 5811 5811 5811 5810 5810 5810 5810 5810 5809 5809 5809 5809 5808 5808 5807 5807 5807 5807 5806 5805 5804 5804 5803 5803 5802 5801 5800 5799 5799 5798 5797 5796 5795 5794 5793 5792 5790 5789 5789 5789 5789 5788 5786 5785 5784
5808 5808 5808 5808 5809 5809 5809 5810 5810 5810 5810 5810 5810 5810 5810 5810 5810 5810 5810 5810 5810 5810 5810 5810 5810 5810 5810 5810 5810 5810 5810 5810 5810 5810 5810 5810 5810 5810 5810 5810 5810 5810 5809 5809 5809 5809 5809 5808 5808 5808 5808 5807 5807 5807 5806 5806 5805 5805 5805 5805 5804 5803 5802 5802 5801 5800 5800 5799 5798 5797 5796 5795 5794 5794 5793 5792 5791 5790 5789 5786 5785 5786 5786 5785 5784 5782 5781 5780
5808 5808 5808 5808 5808 5809 5809 5809 5809 5809 5809 5809 5809 5809 5809 5809 5810 5809 5809 5809 5809 5809 5809 5809 5809 5809 5809 5809 5809 5809 5809 5808 5808 5809 5809 5808 5808 5808 5808 5808 5808 5808 5808 5807 5807 5807 5806 5806 5806 5806 5805 5805 5805 5804 5804 5803 5802 5802 5802 5802 5801 5800 5799 5799 5798 5797 5797 5796 5795 5794 5793 5792 5791 5790 5790 5789 5788 5787 5784 5782 5782 5783 5782 5781 5779 5778 5777 5776
5807 5808 5808 5808 5808 5808 5808 5809 5809 5809 5809 5809 5809 5809 5809 5809 5809 5809 5809 5808 5808 5808 5808 5808 5808 5808 5808 5808 5808 5808 5808 5808 5807 5807 5807 5807 5807 5806 5806 5806 5806 5806 5806 5805 5805 5805 5804 5804 5804 5803 5803 5802 5802 5802 5801 5800 5800 5800 5799 5798 5798 5797 5796 5796 5795 5794 5793 5792 5791 5791 5790 5789 5788 5787 5786 5786 5785 5783 5780 5779 5780 5779 5778 5777 5776 5774 5773 5771
5807 5807 5807 5807 5807 5808 5808 5808 5808 5808 5808 5808 5808 5808 5808 5808 5808 5808 5807 5807 5807 5807 5807 5807 5807 5807 5807 5806 5806 5806 5806 5806 5806 5805 5805 5805 5805 5804 5804 5804 5804 5804 5803 5803 5803 5802 5802 5802 5801 5801 5800 5800 5799 5799 5798 5797 5797 5797 5796 5795 5794 5794 5793 5792 5791 5791 5790 5789 5788 5787 5786 5785 5784 5784 5783 5782 5781 5778 5776 5776 5776 5775 5774 5773 5772 5770 5768 5767
5806 5806 5806 5806 5807 5807 5807 5807 5807 5807 5807 5807 5807 5807 5807 5807 5807 5807 5807 5806 5806 5806 5806 5806 5805 5805 5805 5805 5804 5804 5804 5804 5804 5803 5803 5803 5802 5802 5802 5802 5802 5801 5801 5801 5800 5800 5799 5799 5799 5798 5798 5797 5796 5796 5795 5794 5794 5794 5793 5792 5791 5791 5790 5789 5788 5787 5786 5786 5785 5784 5783 5782 5781 5780 5779 5778 5776 5773 5773 5772 5771 5770 5770 5768 5767 5765 5764 5762
5805 5805 5805 5805 5806 5806 5806 5806 5806 5806 5806 5806 5806 5806 5806 5806 5806 5806 5805 5805 5805 5805 5804 5804 5804 5803 5803 5803 5802 5802 5802 5802 5801 5801 5800 5800 5800 5800 5800 5800 5799 5799 5799 5798 5798 5797 5797 5796 5796 5795 5795 5794 5793 5793 5792 5791 5791 5791 5790 5789 5788 5787 5787 5786 5785 5784 5783 5782 5781 5781 5780 5779 5778 5777 5776 5774 5771 5769 5769 5768 5767 5767 5765 5763 5762 5760 5759 5758
5804 5804 5804 5804 5805 5805 5805 5805 5805 5805 5805 5805 5805 5805 5804 5804 5804 5804 5804 5803 5803 5803 5802 5802 5801 5801 5801 5800 5800 5800 5799 5799 5799 5798 5798 5798 5797 5797 5797 5797 5797 5796 5796 5796 5795 5795 5794 5794 5793 5792 5792 5791 5790 5790 5789 5789 5788 5788 5787 5786 5785 5784 5783 5782 5781 5780 5779 5779 5778 5777 5776 5775 5774 5773 5772 5769 5766 5765 5764 5763 5763 5762 5760 5758 5757 5755 5754 5753
5803 5803 5803 5804 5804 5804 5804 5804 5804 5803 5803 5803 5803 5803 5802 5802 5802 5802 5801 5801 5801 5800 5800 5799 5799 5799 5798 5798 5798 5797 5797 5796 5796 5796 5796 5795 5795 5795 5795 5794 5794 5794 5793 5793 5793 5792 5792 5791 5790 5790 5789 5788 5788 5787 5786 5786 5785 5785 5784 5783 5782 5781 5780 5779 5778 5777 5776 5775 5774 5773 5772 5771 5770 5768 5767 5765 5762 5760 5759 5759 5758 5756 5754 5753 5752 5750 5749 5748
5803 5803 5803 5803 5803 5803 5803 5803 5802 5802 5802 5801 5801 5801 5801 5800 5800 5800 5799 5799 5798 5798 5797 5797 5797 5797 5796 5796 5795 5795 5795 5794 5794 5794 5793 5793 5793 5792 5792 5792 5791 5791 5791 5790 5790 5789 5789 5788 5787 5787 5786 5785 5785 5784 5783 5783 5782 5782 5781 5780 5779 5778 5777 5776 5774 5773 5772 5771 5769 5769 5768 5767 5766 5763 5761 5760 5758 5756 5755 5755 5753 5751 5749 5748 5747 5745 5744 5742
5802 5802 5802 5802 5802 5802 5801 5801 5801 5801 5800 5800 5800 5799 5799 5799 5799 5798 5797 5797 5796 5796 5795 5795 5794 5794 5794 5794 5793 5793 5792 5792 5791 5791 5791 5790 5790 5790 5789 5789 5788 5788 5788 5787 5787 5786 5786 5785 5784 5784 5783 5782 5782 5781 5780 5780 5779 5778 5777 5777 5776 5774 5774 5772 5770 5769 5768 5766 5765 5765 5764 5763 5761 5759 5757 5755 5754 5752 5751 5749 5747 5746 5744 5743 5742 5740 5738 5736
5801 5801 5801 5801 5801 5800 5800 5800 5799 5799 5799 5798 5798 5798 5798 5797 5797 5797 5796 5795 5795 5794 5793 5792 5792 5792 5791 5791 5790 5790 5790 5789 5789 5788 5788 5788 5788 5788 5787 5786 5786 5785 5785 5784 5784 5783 5783 5782 5781 5780 5779 5779 5778 5777 5777 5776 5775 5775 5774 5773 5773 5771 5770 5768 5767 5765 5764 5763 5761 5760 5760 5759 5756 5754 5752 5751 5749 5748 5746 5743 5742 5741 5739 5738 5736 5734 5731 5730
5801 5801 5800 5800 5800 5799 5799 5799 5798 5798 5797 5797 5796 5796 5796 5796 5795 5795 5794 5794 5793 5792 5791 5791 5790 5789 5789 5788 5788 5788 5787 5787 5786 5786 5786 5786 5785 5785 5785 5784 5783 5783 5782 5781 5781 5780 5780 5779 5778 5777 5776 5776 5775 5774 5774 5773 5772 5771 5770 5770 5769 5768 5766 5764 5763 5761 5760 5759 5757 5756 5755 5754 5751 5750 5748 5746 5744 5743 5740 5738 5736 5735 5733 5732 5729 5727 5725 5723
5800 5800 5799 5799 5799 5798 5798 5798 5797 5796 5796 5795 5795 5795 5794 5794 5793 5793 5792 5792 5791 5790 5789 5788 5788 5787 5786 5785 5785 5785 5784 5784 5783 5783 5783 5783 5782 5782 5782 5781 5781 5780 5779 5779 5778 5777 5777 5776 5775 5774 5773 5772 5771 5771 5770 5769 5768 5767 5766 5766 5765 5764 5763 5761 5759 5758 5756 5755 5753 5751 5751 5749 5747 5745 5743 5740 5739 5737 5735 5733 5731 5729 5727 5725 5722 5720 5718 5716
5799 5799 5799 5798 5798 5797 5797 5796 5796 5795 5795 5794 5794 5793 5793 5792 5791 5791 5790 5790 5789 5788 5787 5786 5786 5785 5784 5783 5783 5782 5782 5781 5781 5780 5780 5779 5779 5779 5779 5778 5778 5777 5776 5776 5775 5774 5773 5773 5772 5771 5770 5769 5768 5767 5766 5765 5764 5763 5762 5762 5760 5759 5759 5757 5755 5753 5752 5750 5749 5747 5746 5745 5743 5741 5738 5735 5733 5731 5729 5727 5725 5723 5720 5718 5716 5713 5711 5708
5798 5798 5798 5798 5797 5796 5796 5795 5794 5794 5793 5793 5792 5792 5791 5790 5790 5789 5789 5788 5787 5786 5785 5784 5784 5783 5782 5781 5781 5780 5779 5779 5778 5778 5777 5777 5776 5776 5776 5775 5775 5774 5773 5772 5772 5771 5770 5770 5769 5767 5766 5765 5764 5763 5762 5762 5760 5759 5758 5757 5756 5755 5754 5753 5750 5749 5747 5745 5744 5742 5741 5740 5737 5736 5734 5731 5727 5724 5722 5719 5717 5715 5713 5711 5708 5706 5704 5701
5798 5798 5797 5797 5796 5795 5795 5794 5793 5793 5792 5792 5791 5791 5790 5789 5789 5788 5787 5787 5786 5785 5784 5783 5782 5781 5780 5780 5779 5778 5777 5777 5776 5776 5775 5774 5774 5773 5773 5772 5772 5771 5770 5769 5769 5768 5767 5766 5765 5764 5762 5761 5760 5759 5759 5758 5757 5755 5754 5753 5752 5751 5750 5749 5746 5744 5742 5741 5739 5737 5736 5734 5731 5730 5729 5726 5723 5718 5715 5713 5711 5708 5706 5703 5701 5699 5697 5695
5797 5797 5797 5796 5796 5795 5794 5793 5793 5792 5792 5791 5790 5790 5789 5788 5788 5787 5786 5785 5784 5783 5782 5781 5780 5779 5779 5777 5777 5776 5775 5775 5774 5773 5773 5772 5771 5771 5770 5769 5769 5768 5767 5766 5766 5765 5764 5763 5762 5760 5759 5758 5757 5756 5754 5753 5752 5751 5750 5749 5748 5747 5745 5743 5740 5739 5737 5735 5734 5732 5731 5729 5726 5724 5722 5721 5718 5713 5710 5707 5704 5701 5699 5696 5694 5692 5690 5688
5797 5796 5796 5796 5795 5794 5793 5792 5792 5792 5791 5790 5790 5789 5788 5787 5786 5785 5785 5784 5783 5782 5781 5779 5778 5777 5776 5775 5774 5774 5773 5772 5772 5771 5770 5770 5769 5768 5767 5766 5766 5765 5764 5763 5762 5762 5761 5760 5759 5757 5756 5755 5753 5752 5750 5749 5748 5746 5745 5743 5742 5741 5740 5737 5734 5733 5731 5730 5728 5726 5724 5722 5720 5718 5715 5714 5712 5708 5704 5701 5697 5694 5692 5689 5687 5685 5683 5680
5796 5796 5795 5795 5794 5793 5792 5792 5791 5790 5790 5789 5788 5787 5786 5786 5785 5784 5783 5782 5781 5780 5779 5777 5776 5775 5774 5773 5772 5771 5771 5770 5769 5768 5767 5767 5766 5765 5764 5764 5763 5762 5761 5760 5759 5758 5757 5756 5755 5754 5753 5751 5750 5748 5747 5745 5744 5742 5740 5738 5737 5735 5734 5732 5729 5728 5725 5724 5723 5720 5717 5715 5713 5712 5709 5707 5705 5702 5699 5695 5691 5688 5685 5683 5680 5678 5675 5673
5795 5795 5795 5794 5793 5792 5792 5791 5790 5789 5788 5787 5787 5786 5785 5784 5783 5782 5781 5780 5779 5778 5777 5775 5774 5773 5772 5771 5770 5769 5768 5767 5767 5766 5765 5764 5763 5763 5762 5761 5760 5759 5758 5757 5756 5755 5754 5753 5751 5750 5749 5747 5746 5744 5743 5741 5739 5738 5735 5734 5732 5729 5728 5727 5724 5722 5719 5718 5716 5713 5710 5709 5707 5705 5703 5701 5699 5696 5692 5689 5685 5682 5679 5676 5673 5671 5668 5665
5795 5795 5794 5793 5792 5791 5791 5790 5789 5788 5787 5786 5785 5785 5783 5782 5781 5780 5779 5778 5777 5775 5774 5773 5772 5771 5770 5769 5768 5767 5766 5765 5764 5763 5762 5762 5761 5760 5759 5758 5757 5756 5755 5754 5753 5752 5750 5749 5748 5746 5745 5743 5742 5740 5739 5737 5735 5733 5731 5729 5728 5725 5723 5722 5719 5717 5714 5712 5710 5708 5704 5702 5701 5699 5697 5695 5692 5689 5685 5682 5678 5675 5672 5669 5666 5664 5661 5658
5794 5794 5793 5792 5791 5791 5789 5788 5788 5787 5786 5785 5784 5783 5781 5780 5779 5777 5776 5775 5774 5773 5772 5771 5770 5769 5768 5766 5765 5765 5764 5762 5761 5761 5760 5759 5758 5757 5756 5755 5754 5753 5752 5751 5750 5749 5747 5746 5744 5743 5741 5740 5738 5736 5735 5733 5731 5728 5726 5725 5723 5720 5718 5717 5715 5712 5710 5707 5704 5702 5698 5696 5694 5692 5690 5688 5685 5682 5678 5675 5671 5668 5665 5662 5659 5657 5654 5651
5794 5793 5793 5792 5791 5790 5788 5787 5786 5785 5784 5783 5782 5780 5779 5778 5776 5775 5774 5774 5772 5771 5770 5769 5768 5767 5766 5765 5764 5763 5762 5761 5760 5759 5758 5757 5756 5755 5754 5753 5752 5751 5750 5748 5747 5746 5744 5743 5741 5740 5738 5736 5734 5732 5731 5729 5727 5724 5722 5720 5718 5716 5713 5711 5709 5707 5705 5702 5698 5695 5692 5690 5688 5685 5683 5681 5678 5675 5671 5668 5664 5661 5658 5655 5652 5649 5646 5643
5793 5793 5792 5791 5790 5789 5787 5786 5785 5784 5782 5781 5779 5778 5777 5776 5775 5774 5773 5772 5771 5771 5770 5769 5768 5766 5765 5764 5763 5762 5760 5759 5758 5757 5756 5755 5754 5753 5752 5751 5750 5749 5748 5746 5745 5743 5741 5740 5738 5736 5734 5732 5730 5728 5727 5725 5723 5720 5717 5715 5713 5711 5708 5706 5703 5701 5699 5696 5693 5689 5685 5683 5682 5678 5676 5674 5671 5667 5664 5660 5657 5653 5650 5647 5644 5641 5638 5635
5793 5792 5791 5790 5789 5787 5786 5785 5783 5782 5781 5779 5778 5777 5776 5775 5775 5774 5773 5772 5771 5770 5769 5768 5767 5766 5765 5764 5762 5761 5760 5758 5757 5756 5755 5754 5753 5752 5750 5749 5748 5747 5745 5744 5742 5740 5739 5737 5735 5733 5731 5729 5727 5725 5722 5721 5719 5716 5713 5711 5708 5706 5703 5701 5698 5695 5693 5691 5688 5684 5678 5676 5676 5673 5669 5666 5663 5660 5657 5653 5649 5646 5642 5639 5636 5633 5630 5627
5792 5791 5790 5789 5787 5786 5785 5784 5782 5781 5780 5779 5778 5777 5776 5775 5774 5773 5773 5772 5771 5770 5769 5768 5767 5766 5765 5764 5762 5760 5759 5758 5756 5755 5754 5752 5751 5750 5749 5747 5746 5745 5743 5741 5740 5738 5736 5734 5732 5730 5727 5725 5723 5721 5718 5716 5714 5711 5709 5707 5704 5701 5699 5696 5693 5690 5688 5686 5683 5678 5673 5670 5670 5667 5663 5659 5655 5653 5649 5645 5642 5638 5635 5631 5628 5625 5622 5619
5791 5790 5788 5787 5786 5785 5784 5783 5782 5781 5780 5779 5778 5777 5776 5775 5774 5773 5772 5772 5771 5769 5768 5767 5766 5765 5764 5763 5762 5760 5758 5757 5755 5754 5752 5751 5750 5748 5747 5745 5744 5742 5740 5739 5737 5735 5734 5731 5729 5727 5724 5722 5719 5717 5714 5712 5709 5707 5704 5702 5699 5697 5694 5691 5689 5685 5682 5680 5677 5672 5668 5665 5663 5661 5657 5653 5649 5645 5641 5637 5634 5630 5627 5624 5620 5617 5614 5611
5789 5788 5787 5786 5785 5784 5783 5782 5782 5781 5780 5779 5778 5777 5776 5775 5774 5773 5772 5771 5770 5769 5768 5767 5766 5764 5763 5762 5761 5759 5757 5755 5754 5753 5751 5750 5748 5746 5745 5743 5742 5740 5738 5736 5734 5732 5730 5728 5726 5723 5720 5718 5715 5712 5710 5707 5705 5702 5700 5697 5694 5692 5689 5686 5683 5680 5676 5674 5670 5666 5662 5658 5656 5655 5650 5645 5642 5637 5633 5629 5626 5623 5619 5616 5613 5609 5606 5603
5788 5787 5786 5785 5784 5784 5783 5782 5781 5780 5780 5779 5778 5777 5775 5774 5773 5772 5771 5771 5769 5768 5768 5767 5765 5764 5762 5760 5759 5757 5756 5754 5752 5751 5749 5748 5746 5745 5743 5741 5739 5737 5735 5732 5730 5729 5726 5724 5722 5719 5717 5714 5711 5709 5706 5703 5701 5698 5695 5693 5690 5687 5684 5681 5678 5674 5671 5668 5664 5659 5655 5650 5648 5646 5643 5638 5634 5630 5626 5622 5618 5615 5612 5609 5605 5602 5599 5596
5787 5786 5786 5785 5784 5783 5783 5782 5781 5780 5779 5778 5777 5776 5775 5774 5773 5772 5771 5770 5769 5768 5767 5766 5765 5763 5761 5759 5758 5756 5754 5752 5750 5748 5747 5745 5744 5742 5740 5739 5737 5735 5734 5731 5728 5726 5724 5722 5719 5716 5714 5711 5709 5706 5703 5699 5696 5692 5689 5686 5684 5681 5678 5675 5672 5668 5665 5661 5657 5652 5648 5644 5640 5638 5635 5631 5627 5623 5620 5616 5612 5609 5605 5602 5598 5595 5592 5589
5787 5786 5786 5785 5784 5783 5782 5781 5781 5780 5779 5778 5777 5776 5775 5774 5773 5772 5771 5770 5769 5768 5767 5765 5764 5762 5761 5759 5757 5755 5753 5751 5749 5747 5745 5744 5742 5741 5739 5738 5736 5734 5733 5732 5729 5725 5722 5720 5717 5713 5710 5708 5705 5702 5699 5695 5691 5687 5684 5680 5676 5673 5670 5667 5663 5660 5658 5654 5650 5646 5642 5639 5635 5631 5628 5625 5621 5617 5613 5610 5606 5602 5599 5595 5592 5588 5585 5581
5787 5786 5786 5785 5784 5783 5782 5782 5781 5780 5779 5778 5777 5776 5775 5774 5773 5772 5771 5770 5768 5767 5766 5765 5763 5761 5759 5757 5755 5753 5751 5749 5748 5746 5744 5743 5741 5739 5738 5736 5733 5731 5730 5728 5726 5723 5720 5717 5714 5710 5707 5704 5700 5697 5694 5690 5686 5681 5677 5673 5669 5664 5661 5658 5654 5651 5649 5647 5645 5641 5636 5634 5631 5627 5624 5620 5616 5611 5607 5603 5599 5596 5592 5588 5584 5581 5577 5573
5787 5787 5786 5785 5784 5784 5783 5782 5782 5781 5780 5778 5777 5776 5775 5774 5772 5771 5770 5769 5768 5766 5765 5763 5761 5760 5758 5756 5754 5752 5750 5749 5747 5745 5743 5741 5739 5737 5735 5733 5731 5728 5726 5724 5722 5719 5715 5712 5709 5705 5702 5698 5694 5691 5687 5684 5679 5675 5671 5667 5662 5658 5654 5651 5647 5644 5641 5640 5639 5635 5631 5628 5624 5620 5617 5613 5609 5605 5600 5597 5592 5589 5585 5581 5577 5573 5569 5565
5788 5787 5786 5785 5785 5784 5783 5783 5782 5780 5779 5778 5777 5775 5774 5773 5772 5771 5769 5768 5766 5765 5763 5762 5760 5758 5757 5755 5754 5752 5750 5748 5746 5744 5742 5740 5738 5736 5733 5731 5729 5726 5723 5720 5718 5715 5711 5707 5703 5700 5696 5692 5689 5685 5682 5678 5674 5670 5666 5662 5658 5654 5651 5647 5644 5640 5636 5634 5634 5630 5625 5622 5617 5614 5611 5606 5602 5599 5594 5590 5586 5582 5578 5574 5570 5565 5561 5556
5788 5787 5787 5786 5785 5784 5783 5782 5781 5780 5779 5777 5776 5775 5774 5773 5771 5770 5769 5767 5766 5765 5763 5762 5760 5758 5756 5755 5753 5751 5749 5747 5745 5743 5740 5738 5736 5733 5731 5728 5726 5723 5720 5717 5714 5711 5707 5703 5699 5695 5691 5688 5684 5680 5676 5673 5669 5664 5661 5657 5654 5650 5647 5643 5640 5637 5632 5629 5629 5625 5621 5617 5612 5608 5605 5600 5596 5592 5587 5582 5579 5574 5570 5566 5562 5557 5552 5548
5788 5788 5787 5786 5785 5784 5783 5782 5781 5780 5778 5777 5776 5775 5773 5772 5771 5770 5769 5768 5766 5765 5764 5762 5760 5759 5756 5754 5752 5750 5748 5746 5743 5741 5738 5736 5733 5731 5728 5725 5722 5719 5716 5712 5709 5706 5703 5699 5695 5691 5687 5683 5679 5675 5671 5667 5663 5660 5656 5653 5649 5646 5643 5638 5634 5631 5627 5624 5622 5620 5616 5611 5606 5602 5598 5593 5588 5583 5578 5574 5570 5566 5562 5558 5553 5548 5544 5540
5789 5788 5787 5786 5785 5784 5783 5782 5780 5779 5778 5777 5776 5775 5773 5772 5771 5770 5769 5768 5767 5765 5764 5762 5761 5759 5756 5754 5752 5750 5747 5745 5742 5739 5736 5734 5731 5728 5724 5721 5718 5715 5712 5709 5705 5702 5699 5695 5690 5687 5683 5679 5675 5671 5667 5663 5660 5656 5652 5648 5645 5642 5639 5635 5628 5624 5620 5616 5614 5613 5611 5605 5599 5595 5590 5585 5580 5575 5570 5566 5562 5558 5554 5550 5544 5539 5536 5532
5789 5788 5787 5786 5785 5784 5783 5782 5780 5779 5778 5777 5776 5775 5774 5773 5772 5771 5770 5768 5767 5765 5764 5762 5760 5758 5755 5753 5750 5748 5745 5743 5740 5737 5734 5731 5728 5724 5721 5718 5715 5711 5708 5705 5701 5698 5695 5692 5687 5682 5679 5675 5672 5668 5665 5661 5658 5654 5650 5646 5642 5638 5635 5632 5626 5620 5616 5611 5606 5604 5604 5599 5592 5588 5583 5577 5573 5568 5562 5558 5554 5550 5546 5541 5536 5532 5528 5524
5789 5788 5787 5786 5785 5784 5783 5782 5781 5780 5779 5778 5777 5776 5775 5774 5773 5771 5770 5769 5767 5765 5764 5761 5759 5757 5754 5751 5748 5745 5742 5740 5737 5734 5731 5728 5724 5721 5718 5715 5711 5708 5705 5701 5698 5694 5691 5688 5684 5680 5675 5672 5669 5665 5660 5656 5653 5650 5646 5642 5639 5635 5631 5629 5625 5619 5613 5608 5601 5596 5595 5593 5588 5582 5577 5570 5564 5559 5555 5551 5547 5543 5539 5534 5529 5525 5521 5517
5789 5788 5787 5786 5785 5784 5783 5782 5782 5781 5780 5779 5778 5777 5776 5775 5773 5772 5770 5769 5767 5765 5763 5760 5758 5755 5752 5749 5746 5743 5740 5737 5734 5731 5728 5725 5722 5718 5715 5712 5709 5705 5702 5698 5695 5691 5688 5684 5680 5677 5672 5668 5664 5660 5656 5652 5649 5645 5641 5637 5633 5630 5626 5623 5621 5616 5609 5604 5598 5592 5588 5586 5582 5576 5570 5564 5559 5554 5550 5545 5541 5537 5533 5528 5524 5519 5514 5509
5790 5788 5787 5787 5786 5785 5784 5783 5783 5782 5781 5780 5779 5778 5777 5775 5774 5772 5770 5768 5766 5763 5761 5758 5756 5753 5750 5747 5744 5741 5738 5735 5732 5729 5725 5722 5719 5716 5712 5709 5705 5702 5698 5695 5691 5687 5684 5680 5676 5673 5668 5664 5661 5657 5653 5649 5646 5643 5639 5635 5631 5627 5623 5618 5614 5611 5606 5601 5595 5589 5583 5579 5576 5571 5565 5560 5555 5549 5544 5539 5535 5531 5527 5522 5518 5512 5507 5502
5789 5789 5788 5787 5786 5786 5785 5784 5784 5783 5782 5781 5780 5778 5777 5775 5774 5772 5770 5767 5765 5762 5759 5756 5753 5751 5748 5745 5742 5738 5735 5732 5729 5726 5723 5720 5716 5713 5709 5706 5702 5698 5694 5690 5687 5683 5679 5676 5673 5670 5666 5663 5660 5657 5653 5648 5644 5641 5637 5633 5628 5624 5619 5614 5608 5604 5600 5595 5590 5584 5579 5575 5571 5566 5560 5555 5549 5543 5538 5533 5529 5524 5520 5515 5510 5504 5498 5494
5790 5789 5789 5788 5788 5787 5787 5786 5785 5784 5783 5782 5780 5779 5777 5775 5773 5771 5769 5766 5763 5760 5757 5755 5752 5749 5746 5742 5739 5736 5733 5730 5727 5724 5720 5717 5714 5710 5707 5703 5699 5695 5691 5687 5683 5679 5674 5670 5668 5666 5663 5660 5657 5655 5652 5648 5642 5637 5633 5628 5625 5620 5616 5611 5607 5602 5598 5592 5586 5580 5576 5572 5566 5561 5555 5549 5543 5538 5531 5526 5520 5515 5511 5506 5500 5495 5489 5484
5791 5790 5790 5789 5789 5789 5788 5787 5786 5785 5784 5782 5781 5779 5777 5775 5772 5770 5768 5765 5762 5759 5756 5753 5750 5747 5743 5740 5737 5734 5731 5728 5725 5721 5718 5715 5711 5708 5704 5700 5696 5692 5688 5683 5679 5675 5671 5666 5663 5661 5657 5654 5651 5648 5645 5642 5638 5633 5629 5625 5621 5618 5613 5609 5603 5599 5595 5591 5584 5576 5571 5567 5561 5555 5549 5543 5536 5530 5524 5519 5513 5508 5502 5496 5491 5486 5481 5476
5792 5792 5791 5791 5790 5790 5789 5788 5787 5785 5784 5782 5780 5778 5776 5774 5771 5769 5766 5763 5761 5758 5754 5751 5748 5745 5742 5739 5736 5733 5729 5726 5723 5719 5716 5712 5709 5705 5702 5697 5693 5689 5685 5681 5677 5673 5669 5664 5660 5658 5655 5651 5648 5645 5641 5638 5635 5631 5627 5623 5618 5614 5609 5604 5599 5594 5589 5586 5581 5573 5566 5561 5556 5549 5542 5536 5530 5524 5519 5514 5509 5503 5497 5490 5484 5479 5474 5469
5793 5793 5793 5792 5791 5791 5790 5789 5787 5786 5784 5782 5780 5778 5775 5773 5770 5767 5765 5762 5759 5756 5753 5750 5746 5743 5740 5737 5734 5731 5728 5724 5721 5717 5714 5710 5707 5703 5699 5695 5690 5686 5682 5678 5674 5671 5668 5664 5659 5656 5654 5650 5646 5643 5640 5636 5632 5629 5624 5620 5616 5611 5606 5600 5595 5590 5584 5578 5575 5569 5561 5555 5550 5543 5537 5531 5525 5520 5514 5509 5503 5497 5491 5485 5479 5472 5466 5461
5795 5794 5794 5793 5792 5791 5790 5789 5787 5786 5784 5782 5779 5777 5774 5772 5769 5766 5763 5760 5757 5754 5751 5748 5745 5742 5739 5736 5733 5729 5725 5722 5719 5715 5711 5708 5704 5700 5695 5691 5687 5683 5679 5675 5672 5669 5666 5663 5659 5655 5652 5648 5644 5641 5638 5634 5630 5626 5622 5617 5613 5608 5603 5598 5591 5585 5579 5572 5567 5563 5557 5550 5544 5538 5532 5526 5520 5514 5508 5502 5496 5490 5484 5477 5471 5465 5459 5454
5796 5796 5795 5794 5793 5792 5791 5789 5788 5786 5783 5781 5779 5776 5774 5771 5768 5765 5762 5759 5756 5753 5750 5747 5744 5741 5738 5734 5731 5727 5724 5720 5716 5712 5708 5704 5700 5696 5692 5688 5684 5680 5676 5673 5670 5668 5665 5662 5658 5654 5650 5646 5643 5639 5635 5632 5627 5623 5619 5614 5609 5604 5600 5595 5588 5581 5575 5569 5563 5557 5552 5546 5539 5533 5526 5520 5513 5507 5501 5495 5488 5481 5475 5470 5464 5458 5453 5447
5797 5797 5796 5795 5794 5792 5791 5789 5787 5785 5783 5780 5778 5776 5773 5770 5767 5764 5761 5758 5755 5752 5749 5746 5742 5739 5735 5732 5729 5725 5722 5718 5714 5710 5706 5701 5697 5693 5688 5684 5681 5677 5674 5671 5668 5666 5663 5660 5657 5653 5649 5645 5641 5637 5633 5629 5625 5620 5616 5610 5605 5601 5596 5591 5585 5578 5572 5566 5560 5553 5547 5541 5534 5528 5521 5514 5507 5501 5494 5488 5481 5474 5467 5462 5457 5451 5446 5440
5798 5798 5797 5796 5794 5793 5791 5789 5787 5785 5782 5780 5778 5775 5772 5769 5766 5763 5760 5757 5754 5750 5747 5744 5740 5737 5733 5730 5726 5723 5719 5716 5712 5708 5703 5699 5694 5690 5685 5682 5678 5675 5672 5670 5667 5664 5661 5658 5655 5651 5648 5643 5639 5635 5631 5627 5623 5618 5613 5607 5603 5598 5593 5586 5579 5572 5565 5559 5554 5547 5540 5534 5528 5522 5516 5509 5502 5494 5488 5480 5474 5467 5461 5455 5449 5444 5439 5433
5799 5798 5797 5796 5795 5793 5791 5789 5787 5784 5782 5780 5777 5774 5771 5768 5765 5762 5759 5756 5752 5749 5745 5742 5738 5735 5731 5728 5724 5721 5717 5713 5709 5705 5700 5696 5691 5687 5683 5679 5676 5674 5671 5668 5665 5662 5659 5656 5652 5649 5646 5642 5637 5632 5628 5624 5620 5614 5609 5604 5599 5594 5588 5583 5576 5568 5560 5552 5546 5540 5534 5528 5522 5516 5510 5504 5496 5488 5481 5474 5467 5461 5455 5448 5442 5436 5431 5426